Terug naar catalogus

STARLINK-31261

ActiefCommunicatieVLEO
NORAD 59084·PAYLOAD·🇺🇸 United States

Gelanceerd Feb 29, 2024 vanaf Cape Canaveral Space Force Station

Loading…

Volgende Passages (komende 24 uur)

TLE

VersSource: CelesTrak SupGP

Epoch: Sep 15, 2026, 03:04 UTC

1 59084C 24041L   26258.12826389  .00044461  00000+0  16105-2 0  2580
2 59084  43.0016 321.0148 0001508 268.8897  25.0287 15.27552700    12

Volg STARLINK-31261 in realtime met AllMySat

Download on the App Store